Location: Strada George Coșbuc
(47.6577°N, 23.5639°E)
Time: 08:36:42
(UTC+03:00)

ISS - Pass Details

Date: 08 October 2017
Orbit: 401 x 408 km, 51.6° (Epoch: 19 October)

Event Time Altitude Azimuth Distance (km) Brightness Sun altitude
Rises 20:39:19 0° 293° (WNW) 2,328 1.6 -19.0°
Reaches altitude 10° 20:41:25 10° 296° (WNW) 1,468 0.2 -19.3°
Enters shadow 20:44:37 69° 9° (N) 439 -3.8 -19.8°
